Regional Weather Roundup
Issued by NWS Bismarck, ND

Home | Current Version | Previous Version | Text Only | Print | Product List | Glossary On
Versions: 1 2 3 4 5 6 7 8 9 10 11 12 13 14 15 16 17 18 19 20 21 22 23 24 25 26 27 28 29 30 31 32 33 34 35 36 37 38 39 40 41 42 43 44 45 46 47 48 49 50
000
ASUS43 KBIS 030710
RWRBIS

NWR BROADCAST TEXT
NATIONAL WEATHER SERVICE BISMARCK ND
200 AM CDT THU SEP 03 2015

NOTE: "FAIR" INDICATES FEW OR NO CLOUDS BELOW 12,000 FEET WITH NO
SIGNIFICANT WEATHER AND/OR OBSTRUCTIONS TO VISIBILITY.


CITY           SKY/WX    TMP DP  RH WIND       PRES   REMARKS
WILLISTON      MOCLDY    72  53  51 S3        29.64S
MINOT          PTCLDY    70  66  87 SE7       29.68F
MINOT AFB      PTCLDY    69  68  99 SE9       29.67S
BISMARCK       PTCLDY    71  69  93 E7        29.71F
DICKINSON      PTCLDY    68  58  70 S9        29.69F
GARRISON         N/A     73  68  84 SE9       29.70F
HETTINGER ARPT CLEAR     68  59  73 SE7       29.73F
JAMESTOWN      CLOUDY    73  71  93 SE13      29.76F FOG
CROSBY         FAIR      73  61  64 S10       29.64S
HARVEY         FAIR      70  70 100 SE6       29.73F FOG
HAZEN          FAIR      73  68  83 CALM      29.70S
LINTON         FAIR      73  73 100 SE14G20   29.71F
OAKES            N/A     72  72 100 E9        29.77F FOG
RUGBY          FAIR      72  72 100 SE9G18    29.72F
STANLEY        FAIR      72  68  88 VRB3      29.70S
$$

CITY           SKY/WX    TMP DP  RH WIND       PRES   REMARKS
GRAND FORKS    PTCLDY    71  67  87 SE15      29.79S
GRAND FORKS AF PTCLDY    71  67  89 S9        29.79F
DEVILS LAKE    MOCLDY    72  64  78 SE14      29.76F
FARGO          CLEAR     73  68  84 SE13      29.80F
CAVALIER       FAIR      72  66  83 S9        29.78S
GRAFTON        FAIR      72  70  94 S10       29.79S
GWINNER        CLOUDY    75  75 100 SE13      29.79F
LANGDON        FAIR      72  68  88 S14       29.79F
ROLLA          FAIR      68  68 100 S7        29.78F
WALHALLA       FAIR      72  72 100 MISG      29.77F
$$

CITY           SKY/WX    TMP DP  RH WIND       PRES   REMARKS
ABERDEEN       CLEAR     74  71  91 SE7       29.75F
MOBRIDGE       CLEAR     74  72  93 SE8       29.69S
BUFFALO          N/A     70  55  59 S3        29.68F
RAPID CITY     CLEAR     67  48  50 SE3       29.79F
GLASGOW        PTCLDY    72  38  29 N20G28    29.69R
SIDNEY         MOCLDY    66  46  48 CALM        N/A
WOLF POINT     CLOUDY    79  41  25 N17       29.63
GLENDIVE       PTCLDY    75  48  38 S9        29.65S
MILES CITY     PTCLDY    73  45  36 S7        29.62R
BAKER          CLEAR     66  50  56 SE9       29.70F
$$

CITY           SKY/WX    TMP DP  RH WIND       PRES   REMARKS
BILLINGS       MOCLDY    71  34  25 N13       29.78R
GREAT FALLS    CLOUDY    61  38  42 NE14      29.87R
REGINA         PTCLDY    59  52  77 NW10      29.71R
ESTEVAN        MOCLDY    75  63  64 S13       29.64S
$$



USA.gov is the U.S. government's official web portal to all federal, state and local government web resources and services.